Weather History for Monett, MO

Change the Weather History Date:

Friday, March 8, 2013

  Actual Average (KJLN) Record (KJLN)
Temperature  
Mean Temperature 48 °F 46 °F  
Max Temperature 62 °F 57 °F 80 °F (1992)
Min Temperature 35 °F 36 °F 4 °F (1996)
Degree Days  
Heating Degree Days 16 19  
Month to date heating degree days 159  
Since 1 July heating degree days 3413  
Cooling Degree Days 0 0  
Month to date cooling degree days 0  
Year to date cooling degree days 1  
Moisture  
Dew Point 34 °F    
Average Humidity 61    
Maximum Humidity 87    
Minimum Humidity 39    
Precipitation  
Precipitation 0.02 in 0.10 in 1.39 in (1999)
Month to date precipitation 0.83  
Year to date precipitation 5.18  
Sea Level Pressure  
Sea Level Pressure 30.15 in    
Wind  
Wind Speed 13 mph (SE)    
Max Wind Speed 17 mph    
Max Gust Speed 23 mph    
Visibility 10 miles    
Events Rain    
T = Trace of Precipitation, MM = Missing Value Source: NWS Daily Summary

Daily Weather History Graph

Daily Weather History Graph

Search for Another Location

Airport:

Trip Planner

Search our weather history database for the weather conditions in past years. The results will help you decide how hot, cold, wet, or windy it might be!

Date:

Astronomy

Mar. 08, 2013 Rise Set
Actual Time 6:36 AM CST 6:17 PM CST
Civil Twilight 6:10 AM CST 6:43 PM CST
Nautical Twilight 5:40 AM CST 7:13 PM CST
Astronomical Twilight 5:10 AM CST 7:43 PM CST
Moon 4:17 AM CST (3/8) 3:16 PM CST (3/8)
Length of Visible Light 12h 32m
Length of Day
11h 40m
Waning Crescent, 11% of the Moon is Illuminated
Mar 8
Waning Crescent
Mar 11
New
Mar 19
First Quarter
Mar 27
Full
Apr 2
Last Quarter

Hourly Weather History & Observations

Time (CST) Temp. Windchill Dew Point Humidity Pressure Visibility Wind Dir Wind Speed Gust Speed Precip Events Conditions
12:15 AM 42.8 °F 36.6 °F 30.2 °F 61% 30.19 in 10.0 mi ESE 11.5 mph - N/A   Clear
12:35 AM 42.8 °F 36.2 °F 32.0 °F 66% 30.20 in 10.0 mi ESE 12.7 mph - N/A   Clear
12:55 AM 42.8 °F 36.6 °F 32.0 °F 66% 30.20 in 10.0 mi ESE 11.5 mph - N/A   Clear
1:15 AM 41.0 °F 34.3 °F 32.0 °F 70% 30.21 in 10.0 mi ESE 11.5 mph - N/A   Clear
1:35 AM 41.0 °F 34.7 °F 32.0 °F 70% 30.22 in 10.0 mi ESE 10.4 mph - N/A   Clear
1:55 AM 41.0 °F 33.9 °F 32.0 °F 70% 30.21 in 10.0 mi ESE 12.7 mph - N/A   Clear
2:15 AM 39.2 °F 32.0 °F 32.0 °F 75% 30.22 in 10.0 mi ESE 11.5 mph - N/A   Clear
2:35 AM 39.2 °F 31.6 °F 32.0 °F 75% 30.21 in 10.0 mi ESE 12.7 mph 17.3 mph N/A   Clear
2:55 AM 37.4 °F 29.3 °F 32.0 °F 81% 30.20 in 10.0 mi ESE 12.7 mph 18.4 mph N/A   Clear
3:15 AM 37.4 °F 29.3 °F 32.0 °F 81% 30.20 in 10.0 mi ESE 12.7 mph - N/A   Clear
3:35 AM 37.4 °F 28.5 °F 32.0 °F 81% 30.20 in 10.0 mi ESE 15.0 mph 19.6 mph N/A   Clear
3:55 AM 37.4 °F 27.8 °F 32.0 °F 81% 30.20 in 10.0 mi ESE 17.3 mph 20.7 mph N/A   Clear
4:15 AM 37.4 °F 28.5 °F 32.0 °F 81% 30.20 in 10.0 mi ESE 15.0 mph - N/A   Clear
4:35 AM 37.4 °F 28.9 °F 32.0 °F 81% 30.20 in 10.0 mi ESE 13.8 mph - N/A   Clear
4:55 AM 37.4 °F 28.9 °F 32.0 °F 81% 30.21 in 10.0 mi ESE 13.8 mph 19.6 mph N/A   Clear
5:15 AM 37.4 °F 28.9 °F 32.0 °F 81% 30.21 in 10.0 mi ESE 13.8 mph - N/A   Clear
5:35 AM 37.4 °F 29.3 °F 32.0 °F 81% 30.22 in 10.0 mi ESE 12.7 mph 18.4 mph N/A   Clear
5:55 AM 37.4 °F 29.3 °F 32.0 °F 81% 30.23 in 10.0 mi ESE 12.7 mph - N/A   Clear
6:15 AM 37.4 °F 28.5 °F 32.0 °F 81% 30.22 in 10.0 mi ESE 15.0 mph - N/A   Clear
6:35 AM 35.6 °F 27.1 °F 32.0 °F 87% 30.22 in 10.0 mi ESE 12.7 mph 18.4 mph N/A   Clear
6:55 AM 35.6 °F 26.6 °F 32.0 °F 87% 30.22 in 10.0 mi ESE 13.8 mph - N/A   Clear
7:15 AM 37.4 °F 29.3 °F 32.0 °F 81% 30.23 in 10.0 mi SE 12.7 mph - N/A   Clear
7:35 AM 37.4 °F 28.9 °F 32.0 °F 81% 30.22 in 10.0 mi ESE 13.8 mph - N/A   Clear
7:55 AM 39.2 °F 31.2 °F 32.0 °F 75% 30.22 in 10.0 mi ESE 13.8 mph - N/A   Clear
8:15 AM 41.0 °F 33.5 °F 32.0 °F 70% 30.22 in 10.0 mi ESE 13.8 mph 18.4 mph N/A   Clear
8:35 AM 42.8 °F 35.8 °F 32.0 °F 66% 30.23 in 10.0 mi SE 13.8 mph - N/A   Clear
8:55 AM 44.6 °F 37.4 °F 32.0 °F 61% 30.23 in 10.0 mi SE 16.1 mph - N/A   Clear
9:15 AM 44.6 °F 38.8 °F 33.8 °F 66% 30.23 in 10.0 mi SE 11.5 mph 21.9 mph N/A   Clear
9:35 AM 46.4 °F 40.4 °F 33.8 °F 62% 30.23 in 10.0 mi SE 13.8 mph - N/A   Clear
9:55 AM 46.4 °F 40.4 °F 33.8 °F 62% 30.22 in 10.0 mi SE 13.8 mph - N/A   Clear
10:15 AM 48.2 °F - 33.8 °F 58% 30.22 in 10.0 mi SE 11.5 mph 18.4 mph N/A   Clear
10:35 AM 50.0 °F - 33.8 °F 54% 30.22 in 10.0 mi SE 13.8 mph - N/A   Clear
10:55 AM 50.0 °F - 33.8 °F 54% 30.21 in 10.0 mi SE 12.7 mph - N/A   Clear
11:15 AM 51.8 °F - 35.6 °F 54% 30.21 in 10.0 mi SSE 16.1 mph 19.6 mph N/A   Clear
11:35 AM 53.6 °F - 35.6 °F 51% 30.21 in 10.0 mi SSE 13.8 mph - N/A   Clear
11:55 AM 55.4 °F - 35.6 °F 47% 30.21 in 10.0 mi SSE 13.8 mph 20.7 mph N/A   Clear
12:15 PM 55.4 °F - 35.6 °F 47% 30.20 in 10.0 mi SSE 16.1 mph 20.7 mph N/A   Clear
12:35 PM 59.0 °F - 35.6 °F 42% 30.20 in 10.0 mi SSE 12.7 mph 19.6 mph N/A   Clear
12:55 PM 59.0 °F - 37.4 °F 45% 30.18 in 10.0 mi SE 12.7 mph - N/A   Clear
1:15 PM 59.0 °F - 37.4 °F 45% 30.17 in 10.0 mi SE 13.8 mph 17.3 mph N/A   Clear
1:35 PM 60.8 °F - 37.4 °F 42% 30.14 in 10.0 mi ESE 10.4 mph 17.3 mph N/A   Scattered Clouds
1:55 PM 62.6 °F - 37.4 °F 39% 30.12 in 10.0 mi SE 13.8 mph 19.6 mph N/A   Scattered Clouds
2:15 PM 60.8 °F - 37.4 °F 42% 30.12 in 10.0 mi SSE 11.5 mph - N/A   Mostly Cloudy
2:35 PM 60.8 °F - 35.6 °F 39% 30.12 in 10.0 mi SE 11.5 mph 19.6 mph N/A   Overcast
2:55 PM 60.8 °F - 35.6 °F 39% 30.10 in 10.0 mi SE 13.8 mph - N/A   Overcast
3:15 PM 60.8 °F - 35.6 °F 39% 30.10 in 10.0 mi SE 12.7 mph 16.1 mph N/A   Overcast
3:35 PM 60.8 °F - 35.6 °F 39% 30.09 in 10.0 mi SE 13.8 mph - N/A   Overcast
3:55 PM 59.0 °F - 35.6 °F 42% 30.08 in 10.0 mi ESE 9.2 mph - N/A   Overcast
4:15 PM 59.0 °F - 35.6 °F 42% 30.08 in 10.0 mi ESE 11.5 mph - N/A   Overcast
4:35 PM 59.0 °F - 35.6 °F 42% 30.08 in 10.0 mi SE 9.2 mph - N/A   Overcast
4:55 PM 57.2 °F - 35.6 °F 44% 30.08 in 10.0 mi ESE 9.2 mph - N/A   Overcast
5:15 PM 57.2 °F - 35.6 °F 44% 30.08 in 10.0 mi East 13.8 mph - N/A   Overcast
5:35 PM 55.4 °F - 35.6 °F 47% 30.06 in 10.0 mi East 11.5 mph - N/A   Overcast
5:55 PM 55.4 °F - 33.8 °F 44% 30.08 in 10.0 mi ESE 15.0 mph 20.7 mph N/A   Overcast
6:35 PM 53.6 °F - 33.8 °F 47% 30.09 in 10.0 mi ESE 11.5 mph - N/A   Overcast
6:55 PM 53.6 °F - 33.8 °F 47% 30.08 in 10.0 mi ESE 15.0 mph 18.4 mph N/A   Overcast
7:15 PM 53.6 °F - 33.8 °F 47% 30.08 in 10.0 mi ESE 13.8 mph 18.4 mph N/A   Overcast
7:35 PM 51.8 °F - 33.8 °F 50% 30.08 in 10.0 mi ESE 15.0 mph - N/A   Overcast
7:55 PM 51.8 °F - 33.8 °F 50% 30.08 in 10.0 mi ESE 13.8 mph 20.7 mph N/A   Overcast
8:15 PM 51.8 °F - 33.8 °F 50% 30.08 in 10.0 mi SE 12.7 mph 23.0 mph N/A   Overcast
8:35 PM 51.8 °F - 33.8 °F 50% 30.08 in 10.0 mi SE 12.7 mph - N/A   Overcast
8:55 PM 51.8 °F - 33.8 °F 50% 30.08 in 10.0 mi SE 12.7 mph 17.3 mph N/A   Overcast
9:15 PM 51.8 °F - 33.8 °F 50% 30.07 in 10.0 mi SE 15.0 mph - N/A   Overcast
9:35 PM 51.8 °F - 33.8 °F 50% 30.07 in 10.0 mi SE 15.0 mph - N/A   Overcast
9:55 PM 51.8 °F - 33.8 °F 50% 30.08 in 10.0 mi SSE 11.5 mph 18.4 mph N/A Rain Rain
10:15 PM 50.0 °F - 35.6 °F 58% 30.07 in 10.0 mi SSE 13.8 mph - N/A   Drizzle
10:35 PM 46.4 °F 40.7 °F 39.2 °F 76% 30.06 in 10.0 mi ESE 12.7 mph 18.4 mph 0.02 in Rain Light Rain
10:55 PM 46.4 °F 41.1 °F 39.2 °F 76% 30.05 in 10.0 mi SE 11.5 mph - 0.02 in   Overcast
11:15 PM 46.4 °F 40.7 °F 39.2 °F 76% 30.05 in 10.0 mi SE 12.7 mph - N/A   Overcast
11:35 PM 46.4 °F 41.5 °F 39.2 °F 76% 30.05 in 10.0 mi SE 10.4 mph - N/A Rain Light Rain
11:55 PM 46.4 °F 41.5 °F 39.2 °F 76% 30.04 in 10.0 mi SSE 10.4 mph - N/A   Overcast